Regional Weather Roundup
Issued by NWS San Diego, CA

Home | Current Version | Previous Version | Text Only | Print | Product List | Glossary On
Versions: 1 2 3 4 5 6 7 8 9 10 11 12 13 14 15 16 17 18 19 20 21 22 23 24 25 26 27 28 29 30 31 32 33 34 35 36 37 38 39 40 41 42 43 44 45 46 47 48 49 50
000
ASUS46 KSGX 280011
RWRSGX

SAN DIEGO HOURLY WEATHER ROUNDUP
NATIONAL WEATHER SERVICE SAN DIEGO CA
500 PM PDT MON APR 27 2015

NOTE: "FAIR" INDICATES FEW OR NO CLOUDS BELOW 12,000 FEET WITH NO
SIGNIFICANT WEATHER AND/OR OBSTRUCTIONS TO VISIBILITY.

CAZ042-043-060-061-PZZ750-775-280100-

GREATER SAN DIEGO AREA

CITY           SKY/WX    TMP DP  RH WIND       PRES   REMARKS
LINDBERGH FLD  SUNNY     76  45  33 NW14      29.88F
POINT LOMA       N/A     71  49  46 NW20        N/A
CHULA VISTA      N/A     79  42  26 W12       29.81S
IMPERIAL BEACH MOSUNNY   73  51  46 W9        29.89S
BROWN FIELD    SUNNY     78  42  27 W14       29.87F
MIRAMAR MCAS   SUNNY     81  32  17 NW13      29.89R
MONTGOMERY FLD SUNNY     80  32  17 W14       29.88F

$$

NORTH SAN DIEGO COUNTY

CITY           SKY/WX    TMP DP  RH WIND       PRES   REMARKS
CAMP PENDLETON SUNNY     82  28  14 W9        29.86S
OCEANSIDE AP   SUNNY     78  41  26 W12G17    29.86F
VISTA            N/A     78  42  27 W3        29.87S
CARLSBAD       SUNNY     74  45  35 NW6       29.88S
FALLBROOK        N/A     83  29  14 S6        29.87S
SAN MARCOS       N/A     79  41  25 W8        29.87F
POWAY            N/A     83  40  22 CALM      29.89F

$$

EAST SAN DIEGO COUNTY

CITY           SKY/WX    TMP DP  RH WIND       PRES   REMARKS
RAMONA         SUNNY     79  34  19 W14       29.90F
SANTEE LAKES     N/A     83  37  19 W5        29.87F
LA MESA          N/A     80  33  18 W12       29.81F
DESCANSO N       N/A     71  23  16 E9        29.82F
MT. LAGUNA OBS   N/A     56  17  21 N16       29.66F
CAMPO            N/A     74  18  12 NE21      29.91F

$$

ORANGE COUNTY AND THE LOS ANGELES BASIN

CITY           SKY/WX    TMP DP  RH WIND       PRES   REMARKS
JOHN WAYNE AP  SUNNY     82  27  13 W12G22    29.87S
LAKE FOREST FR   N/A     82  32  16 W5        29.78S
SANTA ANA        N/A     87  37  17 CALM      29.82S
HUNTINGTON BCH   N/A     79  46  31 NW13      29.89S
LOS ALAMITOS   FAIR      84  37  18 W14       29.87S
FULLERTON      SUNNY     84  30  14 NW9G18    29.86S
LONG BEACH     SUNNY     82  34  17 W21       29.88S
L.A. AP        SUNNY     74  42  31 W16       29.90F
L.A. DOWNTOWN  SUNNY     79  34  19 MISG      29.88F

$$

THE INLAND EMPIRE

CITY           SKY/WX    TMP DP  RH WIND       PRES   REMARKS
CORONA         SUNNY     87  31  13 W12       29.87S
CHINO          SUNNY     87  36  16 W10       29.87F
ONTARIO        SUNNY     86  27  11 W9        29.88S
SAN BERNARDINO SUNNY    N/A N/A N/A NW12      29.88S
RIVERSIDE AP   SUNNY     88  13   6 NE10G16   29.87F
RIV CYN CREST    N/A     86  37  17 SE6         N/A
MARCH ARB      SUNNY     84  16   8 NW15G25   29.89F
HORSETHIEF CYN   N/A     83  21  10 NW6       29.85F
MENIFEE          N/A     87  26  11 N8        29.94F
HEMET EAST       N/A     85  22  10 CALM      29.88F
FRENCH VALLEY  FAIR      86  19   8 N7        29.88F
TEMECULA         N/A     84  34  16 S8        29.82R

$$

SAN BERNARDINO AND RIVERSIDE COUNTY MOUNTAINS

CITY           SKY/WX    TMP DP  RH WIND       PRES   REMARKS
BIG BEAR AP    SUNNY     55   9  15 E5        30.16S
ANGELUS OAKS     N/A     66  28  24 CALM      29.88S

$$

SOUTHERN DESERT INCLUDING THE COACHELLA VALLEY

CITY           SKY/WX    TMP DP  RH WIND       PRES   REMARKS
PALM SPRINGS   SUNNY     90   9   5 VRB6      29.88F
THOUSAND PALMS   N/A     92  16   6 E2        29.85F
THERMAL        SUNNY     90  15   6 NW9       29.82F
BLYTHE         SUNNY     89  24   9 N9        29.83F
IMPERIAL AP    SUNNY     87  25  10 NW10      29.84F
EL CENTRO NAS  SUNNY     88  19   8 NW12      29.86F
YUMA AZ        SUNNY     89  25  10 NW3       29.83F
MEXICALI       SUNNY     86  23  10 W8        29.84F

$$

UPPER DESERT

CITY           SKY/WX    TMP DP  RH WIND       PRES   REMARKS
VICTORVILLE AP SUNNY     75  16  10 NE14      30.01F
HESPERIA         N/A     74  19  12 CALM      30.08F
APPLE VALLEY     N/A     75  15  10 E2        30.04S
PALMDALE       SUNNY     78  10   7 E13G21    29.99F
LANCASTER      SUNNY     80  13   8 NE14G21   29.99F
EDWARDS AFB    SUNNY     80   7   6 E13G20    29.96F
DAGGETT        SUNNY     79   9   7 E8        29.96F
29 PALMS N     SUNNY     79  19  10 N6        30.01F
NEEDLES        SUNNY     88  23   9 N17       29.86F

$$

REGIONAL REPORTS

CITY           SKY/WX    TMP DP  RH WIND       PRES   REMARKS
SANTA BARBARA  SUNNY     79  39  23 W7        29.90F
SANDBERG       SUNNY     74  14  10 E14G25    30.08F
MT. WILSON       N/A     68  32  26 MISG        N/A
LAS VEGAS NV   MOSUNNY   80  21  11 VRB3      29.93F
PHOENIX AZ     MOSUNNY   85  36  17 VRB3      29.82S
TIJUANA        SUNNY     77  41  27 W10       29.90F
ENSENADA NW      N/A     80  32  17 W10       29.82S

$$

OFFSHORE ISLANDS

CITY           SKY/WX    TMP DP  RH WIND       PRES   REMARKS
CATALINA ARPT  SUNNY     73  35  25 W15       29.96S
SAN NICOLAS IS SUNNY    N/A N/A N/A SW10      29.92F

$$

MARINE AND OFFSHORE BUOY REPORTS

STATION/POSITION SKY/WX   TEMP    WIND        PRES    SWELL
                          AIR SEA DIR/SP/G            HT/PER/DIR
                          (F)     (DEG/KT/KT) (MB)    (FT/S/D)
TANNER BANKS               63 65  320/  6/  6 1013.3F   7/300/ 9
S CLEMENTE BASIN           66 65  280/ 12/ 14 1011.8F   5/280/ 9
SAN NICOLAS IS.               61                N/A     2/310/11
SO. S. ROSA ISLA           59 59  330/ 14/ 16 1012.6F   5/ 8
W. S. BARBARA CH           56 53  320/ 16/ 19 1013.0F   5/300/ 8
S. MONICA BASIN            65 64  320/  2/  4 1013.0F   2/270/ 8
S PEDRO CHANNEL               63                N/A
DANA POINT                    65                N/A     2/190/13
OCEANSIDE OFFSHR              65                N/A     2/210/14
TORREY PINES OTR              65                N/A     2/260/11
LA JOLLA 1                 68 63   20/  3/  3 1011.9F
MISSION BAY BUOY              65                N/A     2/280/11
SAN DIEGO BAY                 68              1012.0F
POINT LOMA SOUTH              65                N/A     2/280/11

$$



USA.gov is the U.S. government's official web portal to all federal, state and local government web resources and services.